Regional Weather Roundup
Issued by NWS

Home | Current Version | Previous Version | Graphics & Text | Print | Product List | Glossary On
Versions: 1 2 3 4 5 6 7 8 9 10 11 12 13 14 15 16 17 18 19 20 21 22 23 24 25 26 27 28 29 30 31 32 33 34 35 36 37 38 39 40 41 42 43 44 45 46 47 48 49 50
000
ASUS43 KIND 260709
RWRIN

WEATHER ROUNDUP FOR INDIANA
NATIONAL WEATHER SERVICE INDIANAPOLIS IN
300 AM EDT TUE JUL 26 2016

NOTE: "FAIR" INDICATES FEW OR NO CLOUDS BELOW 12,000 FEET WITH NO
SIGNIFICANT WEATHER AND/OR OBSTRUCTIONS TO VISIBILITY.

* - STATION DOES NOT REPORT WEATHER SUCH AS PRECIPITATION OR FOG.

+ - STATION NOT QUALITY CONTROLLED BY THE NATIONAL WEATHER SERVICE.
    USE DATA WITH CAUTION...ESPECIALLY DEWPOINT AND RELATIVE
    HUMIDITY OBSERVATIONS.

INZ001>003-010>013-019-020-260800-
NORTHWEST INDIANA

CITY           SKY/WX    TMP DP  RH WIND       PRES   REMARKS
GARY /AIRPORT/ PTCLDY    69  69 100 CALM      30.04S
KNOX *+        PTCLDY    64  63  94 CALM      30.03S
LA PORTE +     PTCLDY   N/A N/A N/A CALM      30.05S
MICHIGAN CITY+ CLOUDY    64  64 100 CALM      30.04S
MONTICELLO +   CLOUDY    66  62  85 CALM      30.02F
RENSSELAER +   PTCLDY    66  66 100 CALM      30.03F
VALPARAISO     CLOUDY    68  65  90 CALM      30.04S

$$

LMZ046-743>745-260800-
SOUTHERN LAKE MICHIGAN

STATION/POSITION TIME  TEMP    WIND        PRES    WAVE
                       AIR SEA DIR/SP/G            HT
                 (UTC) (F)     (DEG/KT/KT) (MB)    (FT)
BURNS HARBOR     0700   76      CALM  /  4 1017.3S
MICHIGAN CITY    0600   74     130/  4/  4   N/A
5NW MICH CITY    0700   74 75  150/  4/  4   N/A     1

$$

INZ004-005-014>016-021>024-260800-
NORTH CENTRAL INDIANA

CITY           SKY/WX    TMP DP  RH WIND       PRES   REMARKS
GOSHEN         PTCLDY    65  61  87 CALM      30.04R
LOGANSPORT +   CLEAR     64  61  88 NE3       30.04S
PERU/GRISSOM   PTCLDY    66  66 100 CALM      30.02S
ROCHESTER +    CLEAR     68  66  94 CALM      30.04F
SOUTH BEND     PTCLDY    65  63  93 CALM      30.04S
WARSAW +       PTCLDY    63  63 100 CALM      30.05R

$$

INZ006>009-017-018-025>027-260800-
NORTHEAST INDIANA

CITY           SKY/WX    TMP DP  RH WIND       PRES   REMARKS
ANGOLA *+      CLEAR     63  63 100 CALM      30.04S
AUBURN +       PTCLDY    64  61  88 CALM      30.04R
FORT WAYNE     CLOUDY    64  61  90 NW3       30.04R
HUNTINGTON +   CLOUDY    64  63  96 CALM      30.04R

$$

INZ028-029-035-036-043>045-051>053-260800-
WEST CENTRAL INDIANA

CITY           SKY/WX    TMP DP  RH WIND       PRES   REMARKS
CRAWFORDSVL +  MOCLDY    68  68 100 CALM      30.03F
GREENCASTLE +  CLOUDY    72  72 100 CALM      30.03F
LAFAYETTE      MOCLDY    67  66  97 CALM      30.02S
TERRE HAUTE    MOCLDY    75  72  90 NE5       30.01F

$$

INZ030>032-037>040-046>048-054>057-064-065-260800-
CENTRAL INDIANA

CITY           SKY/WX    TMP DP  RH WIND       PRES   REMARKS
INDIANAPOLIS   CLOUDY    77  68  73 NE7       30.02F
-EAGLE CREEK   PTCLDY    75  67  76 N3        30.02F
KOKOMO *+      PTCLDY    63  57  82 CALM      30.04S
MARION +       PTCLDY    63  63  99 CALM      30.04S
MT COMFORT *+  CLOUDY    70  68  94 CALM      30.04S
SHELBYVILLE    CLOUDY    76  70  82 NE5       30.01F
ZIONSVILLE +   CLOUDY    68  66  93 CALM      30.05S

$$

INZ033-034-041-042-049-050-058-059-260800-
EAST CENTRAL INDIANA

CITY           SKY/WX    TMP DP  RH WIND       PRES   REMARKS
MUNCIE         PTCLDY    70  65  84 CALM      30.04S

$$

INZ060-061-067>069-081>083-085>088-260800-
SOUTHWEST INDIANA

CITY           SKY/WX    TMP DP  RH WIND       PRES   REMARKS
EVANSVILLE     PTCLDY    74  71  91 CALM      30.00S
HUNTINGBURG *+ CLOUDY    75  72  88 CALM      30.00S VSB 1
WASHINGTON +   PTCLDY    75  75 100 MISG      29.99F FOG

$$

INZ062-063-066-070>080-084-089>092-260800-
SOUTH CENTRAL AND SOUTHEAST INDIANA

CITY           SKY/WX    TMP DP  RH WIND       PRES   REMARKS
BLOOMINGTON    CLOUDY    76  73  91 CALM      30.02F
MADISON *+     PTCLDY    73  72  94 CALM      30.03F
NORTH VERNON + CLOUDY   N/A N/A N/A CALM      30.02F HAZE

$$




USA.gov is the U.S. government's official web portal to all federal, state and local government web resources and services.